Regional Weather Roundup
Issued by NWS Upton, NY

Current Version | Previous Version | Graphics & Text | Print | Product List | Glossary Off
Versions: 1 2 3 4 5 6 7 8 9 10 11 12 13 14 15 16 17 18 19 20 21 22 23 24 25 26 27 28 29 30 31 32 33 34 35 36 37 38 39 40 41 42 43 44 45 46 47 48 49 50

000
ASUS41 KOKX 071008
RWROKX

REGIONAL WEATHER ROUNDUP
NATIONAL WEATHER SERVICE NEW YORK NY
600 AM EDT TUE JUL 07 2015

NOTE: "FAIR" INDICATES FEW OR NO CLOUDS BELOW 12,000 FEET WITH NO
SIGNIFICANT WEATHER AND/OR OBSTRUCTIONS TO VISIBILITY.

NYZ071-072-176-178-NJZ106-104-071100-
NEW YORK CITY METRO AREA


CITY           SKY/WX    TMP DP  RH WIND       PRES   REMARKS
CENTRAL PARK   CLOUDY    76  71  85 VRB3      30.07S
LAGUARDIA APRT CLOUDY    75  71  87 S8        30.04S
KENNEDY INTL   FOG       75  72  90 S9        30.06R VSB 1/8
NEWARK/LIBERTY MOCLDY    76  72  87 SE5       30.04S
BRNX BOT. GARD   N/A     73  70  88 S5        30.07R
TETERBORO      MOCLDY    77  70  79 S7        30.03S
$$

NYZ177-179-078>081-071100-
LONG ISLAND NEW YORK

CITY           SKY/WX    TMP DP  RH WIND       PRES   REMARKS
FARMINGDALE    CLOUDY    74  72  93 S8        30.06S
ISLIP          CLOUDY    73  72  96 S6        30.06R
SHIRLEY        CLOUDY    73  72  96 S6        30.08S FOG
WESTHAMPTON    FOG       73  73 100 S6        30.10R VSB 1/4
MONTAUK POINT    N/A     73  70  90 CALM      30.11R
$$

NYZ052-065-067-071100-
HUDSON VALLEY

CITY           SKY/WX    TMP DP  RH WIND       PRES   REMARKS
WHITE PLAINS     N/A     72  70  93 CALM      30.06S FOG
NEWBURGH       MOCLDY    70  68  94 VRB5      30.07S
MONTGOMERY     MOCLDY    70  68  93 CALM      30.05S
POUGHKEEPSIE   PTCLDY    71  66  84 CALM      30.04F
ALBANY         MOCLDY    71  65  81 CALM      30.04S
$$

NJZ001-105-106-008-010-013-015-019>022-104-071100-
NEW JERSEY

CITY           SKY/WX    TMP DP  RH WIND       PRES   REMARKS
NEWARK/LIBERTY MOCLDY    76  72  87 SE5       30.04S
TETERBORO      MOCLDY    77  70  79 S7        30.03S
CALDWELL       MOCLDY    74  70  87 CALM      30.05R
MORRISTOWN     CLOUDY    72  68  88 CALM      30.04R
SOMERVILLE     FOG       71  69  93 S3        30.02S VSB 1/2
SUSSEX         CLOUDY    72  68  87 CALM      30.04S
ANDOVER          N/A     73  70  90 CALM      30.05S
TRENTON        MOCLDY    74  72  93 SE5       30.03S
MILLVILLE      MOCLDY    75  73  93 CALM      30.04R
ATLANTIC CITY  NOT AVBL
WRIGHTSTOWN    PTCLDY    74  74 100 S6        30.02R
TOMS RIVER     CLEAR     73  72  94 CALM      30.05R
BELMAR         PTCLDY    75  70  83 S3        30.05R
$$

PAZ047>061-062-071-071100-
EASTERN PENNSYLVANIA

CITY           SKY/WX    TMP DP  RH WIND       PRES   REMARKS
PHILADELPHIA   CLOUDY    76  72  87 S3        30.04R
ALLENTOWN      CLOUDY    75  71  87 S3        30.02S
SCRANTON       MOCLDY    72  72 100 CALM      30.03R FOG
$$

CTZ002-004>006-009-010-012-RIZ004-006-007-MAZ004-011-015-071100-
SOUTHERN NEW ENGLAND
 IN CT

CITY           SKY/WX    TMP DP  RH WIND       PRES   REMARKS
BRADLEY INTL   CLOUDY    71  64  78 SE6       30.08R
HARTFORD       CLOUDY    71  66  84 SE9       30.08R
DANBURY        CLOUDY    70  67  90 CALM      30.09S FOG
WTRBRY/OXFORD  CLOUDY    70  64  83 SE5       30.11R VSB 1/4
BRIDGEPORT     CLOUDY    73  70  90 E3        30.07S
MERIDEN        CLOUDY    71  67  87 CALM      30.08S
NEW HAVEN      FOG       71  68  90 E5        30.08R VSB 1
CHESTER        CLOUDY    68  66  94 SE3       30.10S FOG
GROTON         CLOUDY    71  68  90 E8        30.09S
WILLIMANTIC    CLOUDY    69  64  84 CALM      30.10S

 IN RI

CITY           SKY/WX    TMP DP  RH WIND       PRES   REMARKS
PROVIDENCE     CLOUDY    70  67  90 CALM      30.12R
BLOCK ISLAND   CLOUDY    72  70  94 SE7       30.11R
WESTERLY       CLOUDY    70  67  90 CALM      30.11R

 IN MA

CITY           SKY/WX    TMP DP  RH WIND       PRES   REMARKS
BOSTON         MOCLDY    68  65  90 S3        30.12R
WORCESTER      MOCLDY    68  62  81 S5        30.13R
WESTFIELD      CLOUDY    69  64  84 CALM      30.09R
PROVINCETOWN   PTCLDY    66  10  11 S8        30.13S
NANTUCKET      CLOUDY    67  63  87 SE12      30.14R
$$

ANZ330-335-338-340-345-350-353-355-071100-
COASTAL MARINE OBSERVATIONS


STATION/POSITION TIME  SKY/WX   TEMP    WIND        PRES    VSBY  WAVE
                                AIR SEA DIR/SP/G                  HT/PER
                 (UTC)          (F)     (DEG/KT/KT) (MB)    (MI)  (FT/S)
NY HARB ENTRANCE 0950            74 72  170/ 10/ 10 1017.1          2/13
4S FIRE IS       0903               69                N/A           2/10
20S FIRE ISLAND  0950            72 70  180/  8/ 10 1017.8          2/ 7
GREAT SOUTH BAY  0900            72 76  210/  8/ 10   N/A
23SW MTP         0950            71 69  210/  8/  8 1018.6          2/ 7
HUDSON CANYON    NOT AVBL
KINGS POINT      0900            74 68  180/  5/  8 1016.8
CENTRAL LI SOUND NOT AVBL
EASTERN LI SOUND 0900            67 64   90/  6/  8   N/A
ROBBINS REEF     0900            73     170/  5/  6 1016.2
$$


>>>>>>>>>>>>>>>>>>>>>>>>>>>> KEY <<<<<<<<<<<<<<<<<<<<<<<<<<<
>                                                          <
>     SKY/WX - SKY CONDITION/PRESENT WEATHER               <
>     TMP    - TEMPERATURE IN FAHRENHEIT                   <
>     DP     - DEWPOINT IN FAHRENHEIT                      <
>     RH     - RELATIVE HUMIDITY IN PERCENT                <
>     WIND   - DIRECTION AND SPEED IN MPH                  <
>     PRES   - MEAN SEA LEVEL PRESSURE IN INCHES OF HG     <
>     WCI    - WIND CHILL INDEX                            <
>     VSB    - VISIBILITY IN MILES                         <
>     HX     - HEAT INDEX                                  <
>     TC     - TEMPERATURE IN CELSIUS                      <
>     VRB    - VARIABLE WIND DIRECTION                     <
>                                                          <
>>>>>>>>>>>>>>>>>>>>>>>>>>>> KEY <<<<<<<<<<<<<<<<<<<<<<<<<<<





USA.gov is the U.S. government's official web portal to all federal, state and local government web resources and services.